COSMOS 2476 (744)

Last updated on Fri Sep 18 2026 00:03:21 GMT+0000 (Coordinated Universal Time)

1 37867U 11064A 26260.41229149 .00000009 00000+0 00000+0 0 9998 2 37867 65.3277 69.7606 0022592 230.6839 126.2452 2.13103742115729
UTC large
Height (km)
Speed (km/s)
/
Latitude / Longitude
Inclination (degrees)
Orbital Period (minutes)
Azimuth
Elevation
Range (km)
Doppler Factor

Next 0 passes for location: London (51.5072 / 0.1276)

No passes found over London.
COSMOS 2476 (744)